Location: Baller�as
(41.9020°N, 0.1554°W)
Time: 11:04:01
(UTC+00:00)

Cosmos 389 Rocket - Pass Details

Date: 10 August 2020
Orbit: 443 x 475 km, 81.1° (Epoch: 21 September)

Event Time Altitude Azimuth Distance (km) Brightness Sun altitude
Rises 19:45:44 0° 357° (N) 2,455 6.6 -7.3°
Reaches altitude 10° 19:47:53 10° 5° (N) 1,582 5.5 -7.7°
Maximum altitude 19:51:09 40° 77° (ENE) 673 2.9 -8.2°
Drops below altitude 10° 19:54:26 10° 149° (SSE) 1,582 4.6 -8.7°
Enters shadow 19:54:41 - 150° (SSE) 1,682 4.8 -8.8°
